When you browse on this site, cookies collect data to enhance your experience and personalize the content and advertising you see.
Visit our Privacy Policy to learn more. By continuing to use the site, you agree to this use of cookies and data.
  • In Austria
  • List of Countries
  • For 7 days
  • Water Temperature
  • Weather Map
  • News
  • Weather Widgets
  • user-avatar
    Login

    Hourly Weather Zorya

    Today, 22 August, Thursday

    Time Temperature Precipitation Wind Pressure Humidity
    00:00 +23°C° 0 mm 1 mps 755 mmHg 59%
    01:00 +22°C° 0 mm 1 mps 755 mmHg 61%
    02:00 +20°C° 0 mm 0 mps 755 mmHg 63%
    03:00 +22°C° 0 mm 1 mps 755 mmHg 66%
    04:00 +20°C° 0 mm 2 mps 755 mmHg 70%
    05:00 +20°C° 0 mm 3 mps 755 mmHg 74%
    06:00 +21°C° 0 mm 4 mps 755 mmHg 75%
    07:00 +21°C° 0 mm 5 mps 756 mmHg 76%
    08:00 +22°C° 0 mm 6 mps 756 mmHg 77%
    09:00 +22°C° 0 mm 6 mps 756 mmHg 75%
    10:00 +23°C° 0 mm 6 mps 757 mmHg 72%
    11:00 +24°C° 0 mm 6 mps 757 mmHg 70%
    12:00 +24°C° 0 mm 6 mps 757 mmHg 67%
    13:00 +26°C° 0 mm 5 mps 757 mmHg 64%
    14:00 +27°C° 0 mm 5 mps 757 mmHg 61%
    15:00 +26°C° 0 mm 5 mps 757 mmHg 61%
    16:00 +26°C° 0 mm 6 mps 757 mmHg 61%
    17:00 +26°C° 0 mm 6 mps 757 mmHg 62%
    18:00 +23°C° 0 mm 5 mps 757 mmHg 66%
    19:00 +22°C° 0 mm 5 mps 757 mmHg 70%
    20:00 +20°C° 0 mm 5 mps 758 mmHg 74%
    21:00 +19°C° 0 mm 5 mps 758 mmHg 76%
    22:00 +19°C° 0 mm 4 mps 758 mmHg 78%
    23:00 +18°C° 0 mm 4 mps 758 mmHg 81%

    Tomorrow, 23 August, Friday

    Time Temperature Precipitation Wind Pressure Humidity
    00:00 +18°C° 0 mm 4 mps 758 mmHg 82%
    01:00 +17°C° 0 mm 4 mps 758 mmHg 84%
    02:00 +17°C° 0 mm 4 mps 759 mmHg 86%
    03:00 +17°C° 0 mm 4 mps 758 mmHg 86%
    04:00 +15°C° 0 mm 4 mps 758 mmHg 87%
    05:00 +15°C° 0 mm 4 mps 758 mmHg 88%
    06:00 +17°C° 0 mm 4 mps 758 mmHg 83%
    07:00 +18°C° 0 mm 4 mps 758 mmHg 79%
    08:00 +19°C° 0 mm 4 mps 759 mmHg 75%
    09:00 +20°C° 0 mm 5 mps 759 mmHg 71%
    10:00 +21°C° 0 mm 5 mps 759 mmHg 66%
    11:00 +23°C° 0 mm 5 mps 759 mmHg 62%
    12:00 +23°C° 0 mm 5 mps 759 mmHg 60%
    13:00 +25°C° 0 mm 5 mps 759 mmHg 58%
    14:00 +25°C° 0 mm 5 mps 758 mmHg 56%
    15:00 +25°C° 0 mm 5 mps 758 mmHg 55%
    16:00 +25°C° 0 mm 5 mps 758 mmHg 55%
    17:00 +25°C° 0 mm 5 mps 758 mmHg 55%
    18:00 +22°C° 0 mm 4 mps 758 mmHg 59%
    19:00 +20°C° 0 mm 4 mps 759 mmHg 63%
    20:00 +19°C° 0 mm 3 mps 759 mmHg 68%
    21:00 +18°C° 0 mm 3 mps 759 mmHg 71%
    22:00 +17°C° 0 mm 3 mps 759 mmHg 74%
    23:00 +16°C° 0 mm 3 mps 759 mmHg 77%

    Day after tomorrow, 24 August, Saturday

    Time Temperature Precipitation Wind Pressure Humidity
    00:00 +16°C° 0 mm 3 mps 759 mmHg 79%
    01:00 +16°C° 0 mm 3 mps 759 mmHg 81%
    02:00 +14°C° 0 mm 3 mps 759 mmHg 83%
    03:00 +14°C° 0 mm 3 mps 759 mmHg 85%
    04:00 +13°C° 0 mm 3 mps 759 mmHg 86%
    05:00 +13°C° 0 mm 3 mps 759 mmHg 88%
    06:00 +16°C° 0 mm 3 mps 759 mmHg 81%
    07:00 +18°C° 0 mm 3 mps 759 mmHg 75%
    08:00 +19°C° 0 mm 4 mps 759 mmHg 68%
    09:00 +21°C° 0 mm 4 mps 759 mmHg 60%
    10:00 +23°C° 0 mm 4 mps 759 mmHg 52%
    11:00 +26°C° 0 mm 4 mps 759 mmHg 44%
    12:00 +26°C° 0 mm 4 mps 758 mmHg 40%
    13:00 +27°C° 0 mm 3 mps 758 mmHg 37%
    14:00 +28°C° 0 mm 3 mps 758 mmHg 33%
    15:00 +28°C° 0 mm 3 mps 758 mmHg 34%
    16:00 +27°C° 0 mm 3 mps 758 mmHg 36%
    17:00 +27°C° 0 mm 3 mps 757 mmHg 37%
    18:00 +25°C° 0 mm 3 mps 757 mmHg 41%
    19:00 +22°C° 0 mm 3 mps 758 mmHg 45%
    20:00 +20°C° 0 mm 3 mps 758 mmHg 48%
    21:00 +19°C° 0 mm 3 mps 758 mmHg 51%
    22:00 +18°C° 0 mm 3 mps 758 mmHg 54%
    23:00 +17°C° 0 mm 3 mps 758 mmHg 57%

    25 August, Sunday

    Time Temperature Precipitation Wind Pressure Humidity
    00:00 +17°C° 0 mm 2 mps 758 mmHg 60%
    01:00 +16°C° 0 mm 2 mps 758 mmHg 63%
    02:00 +16°C° 0 mm 2 mps 758 mmHg 66%
    03:00 +15°C° 0 mm 2 mps 758 mmHg 68%
    04:00 +15°C° 0 mm 2 mps 758 mmHg 71%
    05:00 +14°C° 0 mm 2 mps 758 mmHg 73%
    06:00 +16°C° 0 mm 2 mps 758 mmHg 68%
    07:00 +18°C° 0 mm 3 mps 758 mmHg 63%
    08:00 +20°C° 0 mm 3 mps 758 mmHg 58%
    09:00 +22°C° 0 mm 3 mps 758 mmHg 52%
    10:00 +24°C° 0 mm 3 mps 758 mmHg 46%
    11:00 +26°C° 0 mm 3 mps 758 mmHg 40%
    12:00 +27°C° 0 mm 3 mps 758 mmHg 37%
    13:00 +28°C° 0 mm 3 mps 758 mmHg 35%
    14:00 +28°C° 0 mm 3 mps 758 mmHg 32%
    15:00 +28°C° 0 mm 3 mps 757 mmHg 35%
    16:00 +27°C° 0 mm 3 mps 757 mmHg 38%
    17:00 +27°C° 0 mm 3 mps 757 mmHg 41%
    18:00 +25°C° 0 mm 3 mps 757 mmHg 48%
    19:00 +22°C° 0 mm 3 mps 758 mmHg 55%
    20:00 +21°C° 0 mm 3 mps 758 mmHg 61%
    21:00 +20°C° 0 mm 3 mps 758 mmHg 67%
    22:00 +19°C° 0 mm 3 mps 758 mmHg 72%
    23:00 +18°C° 0 mm 3 mps 759 mmHg 78%

    26 August, Monday

    Time Temperature Precipitation Wind Pressure Humidity
    00:00 +18°C° 0 mm 3 mps 758 mmHg 81%
    01:00 +17°C° 0 mm 3 mps 758 mmHg 84%
    02:00 +17°C° 0 mm 2 mps 758 mmHg 88%
    03:00 +17°C° 0 mm 2 mps 759 mmHg 89%
    04:00 +16°C° 0 mm 2 mps 759 mmHg 90%
    05:00 +16°C° 0 mm 2 mps 759 mmHg 92%
    06:00 +18°C° 0 mm 3 mps 759 mmHg 83%
    07:00 +19°C° 0 mm 3 mps 759 mmHg 74%
    08:00 +21°C° 0 mm 3 mps 759 mmHg 65%
    09:00 +22°C° 0 mm 3 mps 759 mmHg 58%
    10:00 +25°C° 0 mm 4 mps 759 mmHg 51%
    11:00 +26°C° 0 mm 4 mps 760 mmHg 44%
    12:00 +27°C° 0 mm 4 mps 759 mmHg 41%
    13:00 +28°C° 0 mm 3 mps 759 mmHg 37%
    14:00 +28°C° 0 mm 3 mps 759 mmHg 34%
    15:00 +28°C° 0 mm 3 mps 758 mmHg 34%
    16:00 +27°C° 0 mm 3 mps 758 mmHg 35%
    17:00 +27°C° 0 mm 3 mps 758 mmHg 35%
    18:00 +25°C° 0 mm 3 mps 758 mmHg 40%
    19:00 +22°C° 0 mm 3 mps 758 mmHg 45%
    20:00 +20°C° 0 mm 3 mps 758 mmHg 50%
    21:00 +19°C° 0 mm 3 mps 758 mmHg 53%
    22:00 +18°C° 0 mm 3 mps 758 mmHg 56%
    23:00 +17°C° 0 mm 3 mps 758 mmHg 60%

    27 August, Tuesday

    Time Temperature Precipitation Wind Pressure Humidity
    00:00 +17°C° 0 mm 2 mps 758 mmHg 61%
    01:00 +16°C° 0 mm 2 mps 757 mmHg 63%
    02:00 +16°C° 0 mm 2 mps 757 mmHg 64%
    03:00 +15°C° 0 mm 2 mps 757 mmHg 66%
    04:00 +15°C° 0 mm 1 mps 757 mmHg 68%
    05:00 +14°C° 0 mm 1 mps 757 mmHg 70%
    06:00 +16°C° 0 mm 1 mps 757 mmHg 65%
    07:00 +19°C° 0 mm 1 mps 757 mmHg 59%
    08:00 +21°C° 0 mm 1 mps 757 mmHg 54%
    09:00 +23°C° 0 mm 1 mps 757 mmHg 49%
    10:00 +24°C° 0 mm 1 mps 756 mmHg 43%
    11:00 +26°C° 0 mm 1 mps 756 mmHg 38%
    12:00 +27°C° 0 mm 2 mps 756 mmHg 36%
    13:00 +28°C° 0 mm 2 mps 756 mmHg 34%
    14:00 +28°C° 0 mm 2 mps 755 mmHg 32%
    15:00 +28°C° 0 mm 2 mps 755 mmHg 33%
    16:00 +28°C° 0 mm 2 mps 755 mmHg 35%
    17:00 +27°C° 0 mm 2 mps 754 mmHg 36%
    18:00 +25°C° 0 mm 2 mps 754 mmHg 41%
    19:00 +23°C° 0 mm 2 mps 754 mmHg 47%
    20:00 +20°C° 0 mm 2 mps 754 mmHg 52%
    21:00 +19°C° 0 mm 2 mps 754 mmHg 55%
    22:00 +19°C° 0 mm 2 mps 754 mmHg 58%
    23:00 +19°C° 0 mm 1 mps 754 mmHg 61%
    Show more